Marion, IN

2:24 AM EDT on March 24, 2017 (GMT -0400)
Marion Municipal

Weather History for KMZZ - March, 2013

Change the Weather History Date:

Saturday, March 16, 2013

  Actual Average (KMIE) Record (KMIE)
Temperature  
Mean Temperature 38 °F -  
Max Temperature 43 °F 47 °F 76 °F (1977)
Min Temperature 32 °F 28 °F 12 °F (1970)
Degree Days  
Heating Degree Days 28    
Moisture  
Dew Point 35 °F    
Average Humidity 89    
Maximum Humidity 97    
Minimum Humidity 78    
Precipitation  
Precipitation 0.00 in - - ()
Sea Level Pressure  
Sea Level Pressure 29.81 in    
Wind  
Wind Speed 8 mph (NNE)    
Max Wind Speed 14 mph    
Max Gust Speed 21 mph    
Visibility 4 miles    
Events Fog , Rain , Snow    
Averages and records for this station are not official NWS values.
T = Trace of Precipitation, MM = Missing Value Source: NWS Daily Summary

Daily Weather History Graph

Daily Weather History Graph

Search for Another Location

Airport or City:

Trip Planner

Search our weather history database for the weather conditions in past years. The results will help you decide how hot, cold, wet, or windy it might be!

Date:

Astronomy

Mar. 16, 2013 Rise Set
Actual Time 7:52 AM EDT 7:50 PM EDT
Civil Twilight 7:25 AM EDT 8:18 PM EDT
Nautical Twilight 6:53 AM EDT 8:49 PM EDT
Astronomical Twilight 6:21 AM EDT 9:22 PM EDT
Moon 10:20 AM EDT (3/16) 12:04 AM EDT (3/16)
Length of Visible Light 12h 52m
Length of Day
11h 58m
Waxing Crescent, 23% of the Moon is Illuminated
Mar 16
Waxing Crescent
Mar 19
First Quarter
Mar 27
Full
Apr 3
Last Quarter
Apr 10
New

Hourly Weather History & Observations

Time (EDT) Temp. Windchill Dew Point Humidity Pressure Visibility Wind Dir Wind Speed Gust Speed Precip Events Conditions
12:15 AM 42.1 °F 36.1 °F 37.4 °F 83% 29.76 in 5.0 mi SE 10.4 mph - N/A   Haze
12:35 AM 41.9 °F 35.9 °F 37.4 °F 84% 29.73 in 5.0 mi ESE 10.4 mph - N/A Rain Light Rain
12:55 AM 42.4 °F 36.5 °F 36.9 °F 81% 29.70 in 5.0 mi SE 10.4 mph - N/A   Unknown
1:15 AM 42.8 °F 37.0 °F 36.7 °F 79% 29.69 in 10.0 mi SE 10.4 mph - N/A   Overcast
1:35 AM 43.2 °F 40.5 °F 36.9 °F 78% 29.70 in 10.0 mi ENE 4.6 mph - N/A   Overcast
1:55 AM 42.8 °F 40.1 °F 36.5 °F 78% 29.69 in 10.0 mi SE 4.6 mph - N/A   Mostly Cloudy
2:35 AM 41.7 °F 38.0 °F 36.1 °F 81% 29.66 in 7.0 mi SE 5.8 mph - N/A   Clear
2:55 AM 41.9 °F 39.0 °F 36.3 °F 81% 29.67 in 7.0 mi East 4.6 mph - N/A   Scattered Clouds
3:15 AM 41.4 °F 37.6 °F 36.3 °F 82% 29.67 in 7.0 mi ENE 5.8 mph - N/A   Mostly Cloudy
3:35 AM 41.2 °F 38.2 °F 36.3 °F 83% 29.65 in 5.0 mi ESE 4.6 mph - N/A   Unknown
3:55 AM 41.9 °F 38.2 °F 36.5 °F 81% 29.65 in 5.0 mi ENE 5.8 mph - N/A   Haze
4:15 AM 41.5 °F 37.8 °F 36.7 °F 83% 29.64 in 5.0 mi ENE 5.8 mph - N/A   Haze
4:35 AM 41.5 °F 37.8 °F 36.7 °F 83% 29.64 in 7.0 mi East 5.8 mph - N/A   Unknown
4:55 AM 40.8 °F 36.2 °F 36.3 °F 84% 29.64 in 7.0 mi NE 6.9 mph - N/A   Scattered Clouds
5:15 AM 39.6 °F 35.4 °F 36.0 °F 87% 29.63 in 3.0 mi ENE 5.8 mph - N/A   Unknown
5:35 AM 39.0 °F 34.8 °F 36.1 °F 89% 29.62 in 5.0 mi East 5.8 mph - N/A   Clear
5:55 AM 39.0 °F 36.8 °F 36.5 °F 91% 29.62 in 5.0 mi East 3.5 mph - N/A   Scattered Clouds
6:15 AM 39.2 °F 34.2 °F 36.7 °F 91% 29.63 in 4.0 mi East 6.9 mph - N/A   Clear
6:35 AM 39.0 °F 36.8 °F 36.7 °F 91% 29.62 in 4.0 mi East 3.5 mph - N/A   Clear
6:55 AM 39.2 °F 34.2 °F 36.9 °F 91% 29.63 in 4.0 mi East 6.9 mph - N/A   Scattered Clouds
7:15 AM 39.0 °F 35.7 °F 36.9 °F 92% 29.64 in 4.0 mi NE 4.6 mph - N/A   Scattered Clouds
7:35 AM 38.1 °F 32.9 °F 36.3 °F 93% 29.65 in 4.0 mi NNE 6.9 mph - N/A   Clear
7:55 AM 37.9 °F 31.5 °F 36.3 °F 94% 29.66 in 2.5 mi NNE 9.2 mph - N/A   Clear
8:15 AM 38.3 °F 31.4 °F 36.7 °F 94% 29.65 in 1.0 mi ENE 10.4 mph - N/A   Overcast
8:35 AM 38.3 °F 32.5 °F 37.0 °F 95% 29.66 in 0.5 mi ENE 8.1 mph - N/A Fog Fog
8:55 AM 38.5 °F 32.1 °F 37.4 °F 96% 29.68 in 0.2 mi NE 9.2 mph - N/A Fog Fog
9:15 AM 38.8 °F 33.2 °F 37.8 °F 96% 29.68 in 0.2 mi NE 8.1 mph - N/A Fog Fog
9:35 AM 38.7 °F 31.8 °F 37.6 °F 96% 29.69 in 0.2 mi NE 10.4 mph - N/A Fog Fog
9:55 AM 38.3 °F 30.9 °F 37.2 °F 96% 29.69 in 0.2 mi NNE 11.5 mph - N/A Fog Fog
10:15 AM 38.3 °F 32.5 °F 37.2 °F 96% 29.69 in 0.2 mi NNE 8.1 mph - N/A Fog Fog
10:35 AM 38.3 °F 30.9 °F 37.4 °F 97% 29.71 in 0.2 mi North 11.5 mph - N/A Fog Fog
10:55 AM 38.3 °F 31.9 °F 37.4 °F 97% 29.73 in 0.5 mi North 9.2 mph - N/A Fog Fog
11:15 AM 38.1 °F 31.7 °F 37.2 °F 97% 29.74 in 0.8 mi North 9.2 mph - N/A   Overcast
11:35 AM 38.1 °F 30.7 °F 37.2 °F 97% 29.76 in 0.8 mi NNW 11.5 mph - N/A   Overcast
11:55 AM 38.3 °F 31.9 °F 37.4 °F 97% 29.77 in 1.0 mi NNW 9.2 mph - N/A   Overcast
12:15 PM 38.7 °F 31.8 °F 37.8 °F 97% 29.78 in 1.5 mi NNW 10.4 mph - N/A   Overcast
12:35 PM 38.8 °F 32.6 °F 37.8 °F 96% 29.79 in 2.0 mi NNW 9.2 mph - N/A   Overcast
12:55 PM 39.2 °F 31.2 °F 37.9 °F 95% 29.81 in 2.0 mi NNW 13.8 mph 20.7 mph N/A   Overcast
1:15 PM 39.0 °F 31.8 °F 37.6 °F 95% 29.82 in 1.8 mi North 11.5 mph 18.4 mph N/A   Overcast
1:35 PM 38.7 °F 31.8 °F 37.4 °F 95% 29.83 in 1.8 mi NNW 10.4 mph 17.3 mph N/A   Overcast
1:55 PM 38.5 °F 32.1 °F 37.2 °F 95% 29.84 in 1.5 mi NNW 9.2 mph - N/A   Overcast
2:15 PM 38.5 °F 31.1 °F 36.9 °F 94% 29.85 in 1.8 mi NNW 11.5 mph - N/A   Overcast
2:35 PM 37.8 °F 30.2 °F 36.3 °F 95% 29.87 in 1.5 mi North 11.5 mph 16.1 mph N/A   Overcast
2:55 PM 37.4 °F 29.8 °F 35.8 °F 94% 29.87 in 1.2 mi North 11.5 mph 17.3 mph N/A Snow Light Snow
3:15 PM 37.4 °F 31.4 °F 35.8 °F 94% 29.88 in 2.0 mi North 8.1 mph - N/A   Overcast
3:35 PM 37.4 °F 31.4 °F 35.8 °F 94% 29.89 in 2.0 mi North 8.1 mph - N/A Rain Light Rain
3:55 PM 37.2 °F 30.0 °F 35.6 °F 94% 29.89 in 2.0 mi North 10.4 mph - N/A Rain Light Rain
4:15 PM 37.0 °F 30.4 °F 35.4 °F 94% 29.90 in 4.0 mi North 9.2 mph - N/A Rain Light Rain
4:35 PM 36.9 °F 31.4 °F 35.1 °F 93% 29.91 in 3.0 mi North 6.9 mph - N/A Rain Light Rain
4:55 PM 36.5 °F 29.2 °F 34.7 °F 93% 29.92 in 4.0 mi North 10.4 mph 16.1 mph N/A Rain Light Rain
5:15 PM 36.0 °F 28.5 °F 34.2 °F 93% 29.94 in 2.5 mi North 10.4 mph - N/A Snow Light Snow
5:35 PM 35.4 °F 27.3 °F 33.8 °F 94% 29.95 in 2.5 mi North 11.5 mph - N/A   Overcast
5:55 PM 34.9 °F 27.7 °F 33.3 °F 94% 29.96 in 3.0 mi North 9.2 mph - N/A Snow Light Snow
6:15 PM 34.7 °F 27.5 °F 32.7 °F 92% 29.96 in 4.0 mi North 9.2 mph - N/A   Overcast
6:35 PM 34.7 °F 28.8 °F 32.0 °F 90% 29.96 in 4.0 mi North 6.9 mph - N/A   Overcast
6:55 PM 34.7 °F 28.1 °F 31.8 °F 89% 29.98 in 4.0 mi NNW 8.1 mph - N/A   Overcast
7:15 PM 34.5 °F 27.3 °F 31.5 °F 89% 29.98 in 4.0 mi North 9.2 mph - N/A   Overcast
7:35 PM 34.3 °F 28.4 °F 31.1 °F 88% 29.99 in 4.0 mi North 6.9 mph - N/A   Overcast
7:55 PM 34.2 °F 27.5 °F 30.9 °F 88% 29.98 in 4.0 mi North 8.1 mph - N/A   Overcast
8:15 PM 34.0 °F 26.6 °F 30.2 °F 86% 29.99 in 7.0 mi North 9.2 mph - N/A   Overcast
8:35 PM 33.4 °F 26.6 °F 29.7 °F 86% 29.99 in 4.0 mi North 8.1 mph - N/A Snow Light Snow
8:55 PM 33.3 °F 25.7 °F 29.5 °F 86% 29.99 in 7.0 mi NNE 9.2 mph - N/A Snow Light Snow
9:15 PM 32.9 °F 27.5 °F 29.1 °F 86% 30.00 in 10.0 mi NNE 5.8 mph - N/A   Overcast
9:35 PM 32.9 °F 25.9 °F 28.9 °F 85% 30.01 in 7.0 mi North 8.1 mph - N/A   Overcast
9:55 PM 32.9 °F 26.7 °F 28.0 °F 82% 30.03 in 7.0 mi North 6.9 mph - N/A Snow Light Snow
10:15 PM 32.9 °F 27.5 °F 27.5 °F 81% 30.04 in 10.0 mi North 5.8 mph - N/A   Overcast
10:35 PM 32.9 °F 29.8 °F 27.9 °F 82% 30.05 in 10.0 mi North 3.5 mph - N/A   Overcast
10:55 PM 32.9 °F 28.5 °F 27.5 °F 81% 30.06 in 7.0 mi NNW 4.6 mph - N/A Snow Light Snow
11:15 PM 32.9 °F 28.5 °F 27.0 °F 79% 30.06 in 7.0 mi North 4.6 mph - N/A   Overcast
11:35 PM 32.5 °F 29.3 °F 27.1 °F 80% 30.06 in 7.0 mi North 3.5 mph - N/A Snow Light Snow
11:55 PM 32.4 °F 29.1 °F 27.3 °F 82% 30.06 in 7.0 mi North 3.5 mph - N/A   Overcast